Location: Newark
(51.2625°N, 13.3939°E)
Time: 01:14:43
(UTC+00:00)

Transit 2A Rocket - Pass Details

Date: 24 January 2021
Orbit: 594 x 909 km, 66.7° (Epoch: 03 March)

Event Time Altitude Azimuth Distance (km) Brightness Sun altitude
Rises 16:09:44 0° 311° (NW) 3,075 8.5 -4.5°
Reaches altitude 10° 16:13:33 10° 341° (NNW) 2,085 7.2 -5.1°
Maximum altitude 16:15:33 12° 6° (N) 1,887 6.8 -5.4°
Drops below altitude 10° 16:17:30 10° 32° (NNE) 2,020 6.7 -5.7°
Enters shadow 16:19:07 - 48° (NE) 2,337 6.9 -5.9°
